星链-3900 (STARLINK-3900 )

导读

STARLINK-3900是美国SpaceX公司星链低轨互联网星座中的卫星,于2022年5月6日发射入轨。星链星座旨在为全球提供高速卫星互联网服务,该卫星运行在近地轨道,依托自主防撞、激光星间链路等技术,助力星座实现全球宽带覆盖,服务涵盖民用上网、偏远地区通信、军事通信等场景,是星链规模化组网进程中的组成单元。

基本信息
目录编号:
52461
目录名称:
STARLINK-3900
国际标识:
2022-049L
轨道中心:
EARTH
卫星名称:
星链-3900
卫星全名:
星链-3900 (STARLINK-3900 )
卫星状态:
在轨 (已飞行1582 天)
发射日期:
2022-05-06 UTC
国别 :
美国 (US)
星等 :
--
轨道信息
数据来源 国际轨道数据 AOE轨道数据
星历时间 2026-09-03T22:20:22+0800
15小时前
查看轨道信息
2026-09-02T06:00:00+0800
2天前
查看轨道信息
半长轴 6843.365km 6843.299km
偏心率 0.0001156 0.0001347
轨道倾角 53.161° 53.158°
近地点辐角 79.546° 67.213°
升交点赤经 322.932° 330.780°
平近点角 280.568° 8.352°
近地点 464.436km 464.24km
远地点 466.02km 466.084km
周期 93.900分钟 93.898分钟
每日圈数 15.335512 15.335734
详细信息
固有亮度:
5
最大亮度:
2.5
卫星平台:
Starlink v1.5
覆盖范围:
全球
运营商:
太空探索技术公司
运营商所在国:
美国
制造商(研发单位):
太空探索技术公司
制造商所在国:
美国
使用方式:
暂无
卫星简介
星链(Starlink)计划是由太空探索技术公司(SpaceX)提出的一个巨型低轨卫星互联网星座项目,计划在2019年至2024年间在太空搭建由约1.2万颗卫星组成的“星链”网络,其中1584颗将部署在地球上空550千米处的近地轨道,并从2020年开始工作。该卫星仍在工作。
2D轨道图
3D轨道图
轨道高度分析图
轨道倾角分析图
轨道综合分析图
查看轨道综合分析图
交会数据列表
事件ID 空间交会对象 最接近时刻(TCA) 交会距离 交会风险概率(CRP) 交会风险指数(CRI) 操作
CDM_260904-000205-246106-802322
2026-09-04T
00:02:17+0000
2.236 km
极远距离
2.068475E-6 低风险 0.41
CDM_260904-235005-246106-042621
2026-09-04T
23:50:52+0000
2.446 km
极远距离
1.586689E-6 低风险 0.39
CDM_260903-165905-246106-802321
2026-09-03T
16:59:37+0000
2.706 km
极远距离
1.458528E-6 低风险 0.38
CDM_260905-092805-246106-824421
2026-09-05T
09:28:50+0000
2.811 km
极远距离
1.263044E-6 低风险 0.37
CDM_260904-163105-246106-953121
2026-09-04T
16:31:06+0000
2.620 km
极远距离
4.896161E-7 极低风险 0.29
CDM_260904-145805-246105-803221
2026-09-04T
14:58:59+0000
2.854 km
极远距离
3.49168E-7 极低风险 0.26